Starlink 30763

operational
NORAD ID: 58163 Int'l Des: 2023-166 Owner: SPXS Country: US Constellation: starlink
LEOCIRCULAR

Über Starlink 30763

Beschreibung wird geladen...

Live-Position

3D-Globus wird geladen...

Nächste Überflüge

Höhenverlauf

Altitude vs Time

uPlot chart will show altitude changes over time

Zweizeiliger Elementsatz

1 58163U 23166P 25305.11434214 -.00002653 00000-0 -77515-4 0 9993
2 58163 53.1603 84.2619 0001093 85.6640 274.4486 15.30187303113668
Epoch: 1. Nov. 2025 • Age: 22 hours

Aktueller Status

Höhe 481.9 km
Geschwindigkeit 7.62 km/s
Subsatellitenpunkt -22.17°S, 12.3°E
Startdatum 29. Okt. 2023
Alter 2 years
Typ internet

Technische Details

Klassifizierung Payload
Masse 730.00 kg
Trockenmasse 700.00 kg
Gesamtmasse 730.00 kg
Länge 0.30 m
Durchmesser 4.10 m
Spannweite 29.00 m
Form Box + pan
Hersteller SPXS
Bus-Typ Starlink V2M
Phasenstatus In Orbit
Besitzer/Staat SPXS/US

Große Konstellationen

Loading constellations...